Location: Seasalter
(51.3333°N, 1.0167°E)
Time: 05:04:41
(UTC+00:00)

Cosmos 1833 - Pass Details

Date: 26 September 2023
Orbit: 833 x 865 km, 70.9° (Epoch: 29 November)

Event Time Altitude Azimuth Distance (km) Brightness Sun altitude
Exits shadow 04:50:01 - 221° (SW) 2,936 6.5 -9.8°
Reaches altitude 10° 04:51:17 10° 223° (SW) 2,455 6.1 -9.6°
Maximum altitude 04:56:52 63° 304° (NW) 932 4.3 -8.8°
Drops below altitude 10° 05:02:28 10° 26° (NNE) 2,456 7.1 -7.9°
Sets 05:04:57 0° 30° (NNE) 3,393 7.9 -7.5°
